Year,Month,Day,Hour,Minute,Value (Times are PST for temperature in C)
2012,10,06,00,00,7.40
2012,10,06,00,01,7.40
2012,10,06,00,02,7.30
2012,10,06,00,03,7.30
2012,10,06,00,04,7.30
2012,10,06,00,05,7.30
2012,10,06,00,06,7.30
2012,10,06,00,07,7.20
2012,10,06,00,08,7.20
2012,10,06,00,09,7.20
2012,10,06,00,10,7.20
2012,10,06,00,11,7.20
2012,10,06,00,12,7.20
2012,10,06,00,13,7.20
2012,10,06,00,14,7.20
2012,10,06,00,15,7.10
2012,10,06,00,16,7.10
2012,10,06,00,17,7.10
2012,10,06,00,18,7.10
2012,10,06,00,19,7.10
2012,10,06,00,20,7.00
2012,10,06,00,21,7.00
2012,10,06,00,22,7.00
2012,10,06,00,23,7.00
2012,10,06,00,24,6.90
2012,10,06,00,25,6.90
2012,10,06,00,26,6.90
2012,10,06,00,27,6.90
2012,10,06,00,28,6.80
2012,10,06,00,29,6.80
2012,10,06,00,30,6.80
2012,10,06,00,31,6.80
2012,10,06,00,32,6.80
2012,10,06,00,33,6.80
2012,10,06,00,34,6.80
2012,10,06,00,35,6.80
2012,10,06,00,36,6.80
2012,10,06,00,37,6.80
2012,10,06,00,38,6.80
2012,10,06,00,39,6.80
2012,10,06,00,40,6.80
2012,10,06,00,41,6.80
2012,10,06,00,42,6.80
2012,10,06,00,43,6.80
2012,10,06,00,44,6.80
2012,10,06,00,45,6.70
2012,10,06,00,46,6.70
2012,10,06,00,47,6.70
2012,10,06,00,48,6.70
2012,10,06,00,49,6.70
2012,10,06,00,50,6.70
2012,10,06,00,51,6.70
2012,10,06,00,52,6.70
2012,10,06,00,53,6.70
2012,10,06,00,54,6.70
2012,10,06,00,55,6.70
2012,10,06,00,56,6.70
2012,10,06,00,57,6.70
2012,10,06,00,58,6.70
2012,10,06,00,59,6.70
2012,10,06,01,00,6.70
2012,10,06,01,01,6.70
2012,10,06,01,02,6.70
2012,10,06,01,03,6.70
2012,10,06,01,04,6.60
2012,10,06,01,05,6.60
2012,10,06,01,06,6.60
2012,10,06,01,07,6.60
2012,10,06,01,08,6.60
2012,10,06,01,09,6.60
2012,10,06,01,10,6.60
2012,10,06,01,11,6.60
2012,10,06,01,12,6.60
2012,10,06,01,13,6.60
2012,10,06,01,14,6.50
2012,10,06,01,15,6.50
2012,10,06,01,16,6.50
2012,10,06,01,17,6.50
2012,10,06,01,18,6.40
2012,10,06,01,19,6.40
2012,10,06,01,20,6.40
2012,10,06,01,21,6.40
2012,10,06,01,22,6.40
2012,10,06,01,23,6.40
2012,10,06,01,24,6.40
2012,10,06,01,25,6.40
2012,10,06,01,26,6.30
2012,10,06,01,27,6.30
2012,10,06,01,28,6.30
2012,10,06,01,29,6.30
2012,10,06,01,30,6.30
2012,10,06,01,31,6.30
2012,10,06,01,32,6.30
2012,10,06,01,33,6.30
2012,10,06,01,34,6.30
2012,10,06,01,35,6.30
2012,10,06,01,36,6.20
2012,10,06,01,37,6.20
2012,10,06,01,38,6.20
2012,10,06,01,39,6.20
2012,10,06,01,40,6.20
2012,10,06,01,41,6.20
2012,10,06,01,42,6.20
2012,10,06,01,43,6.20
2012,10,06,01,44,6.20
2012,10,06,01,45,6.10
2012,10,06,01,46,6.10
2012,10,06,01,47,6.10
2012,10,06,01,48,6.10
2012,10,06,01,49,6.10
2012,10,06,01,50,6.10
2012,10,06,01,51,6.10
2012,10,06,01,52,6.10
2012,10,06,01,53,6.10
2012,10,06,01,54,6.10
2012,10,06,01,55,6.10
2012,10,06,01,56,6.10
2012,10,06,01,57,6.10
2012,10,06,01,58,6.10
2012,10,06,01,59,6.10
2012,10,06,02,00,6.10
2012,10,06,02,01,6.10
2012,10,06,02,02,6.10
2012,10,06,02,03,6.10
2012,10,06,02,04,6.20
2012,10,06,02,05,6.20
2012,10,06,02,06,6.20
2012,10,06,02,07,6.20
2012,10,06,02,08,6.20
2012,10,06,02,09,6.20
2012,10,06,02,10,6.30
2012,10,06,02,11,6.30
2012,10,06,02,12,6.30
2012,10,06,02,13,6.30
2012,10,06,02,14,6.30
2012,10,06,02,15,6.30
2012,10,06,02,16,6.30
2012,10,06,02,17,6.30
2012,10,06,02,18,6.40
2012,10,06,02,19,6.40
2012,10,06,02,20,6.40
2012,10,06,02,21,6.40
2012,10,06,02,22,6.40
2012,10,06,02,23,6.40
2012,10,06,02,24,6.40
2012,10,06,02,25,6.50
2012,10,06,02,26,6.50
2012,10,06,02,27,6.50
2012,10,06,02,28,6.50
2012,10,06,02,29,6.50
2012,10,06,02,30,6.40
2012,10,06,02,31,6.40
2012,10,06,02,32,6.40
2012,10,06,02,33,6.40
2012,10,06,02,34,6.40
2012,10,06,02,35,6.40
2012,10,06,02,36,6.40
2012,10,06,02,37,6.40
2012,10,06,02,38,6.30
2012,10,06,02,39,6.30
2012,10,06,02,40,6.30
2012,10,06,02,41,6.30
2012,10,06,02,42,6.30
2012,10,06,02,43,6.30
2012,10,06,02,44,6.30
2012,10,06,02,45,6.30
2012,10,06,02,46,6.20
2012,10,06,02,47,6.20
2012,10,06,02,48,6.20
2012,10,06,02,49,6.20
2012,10,06,02,50,6.20
2012,10,06,02,51,6.20
2012,10,06,02,52,6.20
2012,10,06,02,53,6.20
2012,10,06,02,54,6.20
2012,10,06,02,55,6.20
2012,10,06,02,56,6.20
2012,10,06,02,57,6.20
2012,10,06,02,58,6.10
2012,10,06,02,59,6.10
2012,10,06,03,00,6.10
2012,10,06,03,01,6.10
2012,10,06,03,02,6.10
2012,10,06,03,03,6.10
2012,10,06,03,04,6.10
2012,10,06,03,05,6.10
2012,10,06,03,06,6.10
2012,10,06,03,07,6.10
2012,10,06,03,08,6.10
2012,10,06,03,09,6.10
2012,10,06,03,10,6.10
2012,10,06,03,11,6.10
2012,10,06,03,12,6.10
2012,10,06,03,13,6.10
2012,10,06,03,14,6.10
2012,10,06,03,15,6.10
2012,10,06,03,16,6.00
2012,10,06,03,17,6.00
2012,10,06,03,18,6.00
2012,10,06,03,19,6.00
2012,10,06,03,20,6.00
2012,10,06,03,21,6.00
2012,10,06,03,22,6.00
2012,10,06,03,23,6.00
2012,10,06,03,24,6.00
2012,10,06,03,25,6.00
2012,10,06,03,26,5.90
2012,10,06,03,27,5.90
2012,10,06,03,28,5.90
2012,10,06,03,29,5.90
2012,10,06,03,30,5.90
2012,10,06,03,31,5.90
2012,10,06,03,32,5.90
2012,10,06,03,33,5.90
2012,10,06,03,34,5.90
2012,10,06,03,35,5.90
2012,10,06,03,36,5.90
2012,10,06,03,37,5.90
2012,10,06,03,38,5.90
2012,10,06,03,39,5.90
2012,10,06,03,40,5.90
2012,10,06,03,41,5.90
2012,10,06,03,42,5.90
2012,10,06,03,43,5.90
2012,10,06,03,44,5.90
2012,10,06,03,45,5.90
2012,10,06,03,46,5.90
2012,10,06,03,47,5.90
2012,10,06,03,48,5.90
2012,10,06,03,49,5.90
2012,10,06,03,50,5.90
2012,10,06,03,51,5.90
2012,10,06,03,52,5.90
2012,10,06,03,53,5.90
2012,10,06,03,54,5.90
2012,10,06,03,55,5.90
2012,10,06,03,56,5.90
2012,10,06,03,57,5.90
2012,10,06,03,58,5.90
2012,10,06,03,59,5.90
2012,10,06,04,00,5.90
2012,10,06,04,01,5.90
2012,10,06,04,02,5.90
2012,10,06,04,03,5.90
2012,10,06,04,04,5.90
2012,10,06,04,05,5.90
2012,10,06,04,06,5.90
2012,10,06,04,07,5.90
2012,10,06,04,08,5.90
2012,10,06,04,09,5.80
2012,10,06,04,10,5.80
2012,10,06,04,11,5.80
2012,10,06,04,12,5.80
2012,10,06,04,13,5.80
2012,10,06,04,14,5.80
2012,10,06,04,15,5.80
2012,10,06,04,16,5.70
2012,10,06,04,17,5.70
2012,10,06,04,18,5.70
2012,10,06,04,19,5.70
2012,10,06,04,20,5.70
2012,10,06,04,21,5.70
2012,10,06,04,22,5.70
2012,10,06,04,23,5.70
2012,10,06,04,24,5.70
2012,10,06,04,25,5.70
2012,10,06,04,26,5.70
2012,10,06,04,27,5.70
2012,10,06,04,28,5.70
2012,10,06,04,29,5.70
2012,10,06,04,30,5.60
2012,10,06,04,31,5.60
2012,10,06,04,32,5.60
2012,10,06,04,33,5.70
2012,10,06,04,34,5.70
2012,10,06,04,35,5.70
2012,10,06,04,36,5.70
2012,10,06,04,37,5.70
2012,10,06,04,38,5.70
2012,10,06,04,39,5.70
2012,10,06,04,40,5.70
2012,10,06,04,41,5.70
2012,10,06,04,42,5.70
2012,10,06,04,43,5.70
2012,10,06,04,44,5.70
2012,10,06,04,45,5.80
2012,10,06,04,46,5.80
2012,10,06,04,47,5.80
2012,10,06,04,48,5.80
2012,10,06,04,49,5.80
2012,10,06,04,50,5.80
2012,10,06,04,51,5.80
2012,10,06,04,52,5.80
2012,10,06,04,53,5.80
2012,10,06,04,54,5.80
2012,10,06,04,55,5.80
2012,10,06,04,56,5.90
2012,10,06,04,57,5.90
2012,10,06,04,58,5.90
2012,10,06,04,59,5.90
2012,10,06,05,00,5.90
2012,10,06,05,01,6.00
2012,10,06,05,02,6.00
2012,10,06,05,03,6.00
2012,10,06,05,04,6.00
2012,10,06,05,05,6.10
2012,10,06,05,06,6.10
2012,10,06,05,07,6.10
2012,10,06,05,08,6.10
2012,10,06,05,09,6.10
2012,10,06,05,10,6.10
2012,10,06,05,11,6.10
2012,10,06,05,12,6.10
2012,10,06,05,13,6.10
2012,10,06,05,14,6.10
2012,10,06,05,15,6.10
2012,10,06,05,16,6.10
2012,10,06,05,17,6.10
2012,10,06,05,18,6.10
2012,10,06,05,19,6.10
2012,10,06,05,20,6.10
2012,10,06,05,21,6.10
2012,10,06,05,22,6.10
2012,10,06,05,23,6.10
2012,10,06,05,24,6.10
2012,10,06,05,25,6.00
2012,10,06,05,26,6.00
2012,10,06,05,27,6.00
2012,10,06,05,28,6.00
2012,10,06,05,29,6.00
2012,10,06,05,30,6.00
2012,10,06,05,31,6.00
2012,10,06,05,32,6.00
2012,10,06,05,33,6.00
2012,10,06,05,34,6.00
2012,10,06,05,35,5.90
2012,10,06,05,36,6.00
2012,10,06,05,37,5.90
2012,10,06,05,38,5.90
2012,10,06,05,39,5.90
2012,10,06,05,40,5.90
2012,10,06,05,41,5.90
2012,10,06,05,42,5.90
2012,10,06,05,43,5.90
2012,10,06,05,44,5.90
2012,10,06,05,45,5.90
2012,10,06,05,46,5.90
2012,10,06,05,47,5.90
2012,10,06,05,48,5.90
2012,10,06,05,49,5.90
2012,10,06,05,50,5.90
2012,10,06,05,51,5.90
2012,10,06,05,52,5.90
2012,10,06,05,53,5.90
2012,10,06,05,54,5.90
2012,10,06,05,55,5.80
2012,10,06,05,56,5.80
2012,10,06,05,57,5.80
2012,10,06,05,58,5.80
2012,10,06,05,59,5.80
2012,10,06,06,00,5.80
2012,10,06,06,01,5.80
2012,10,06,06,02,5.80
2012,10,06,06,03,5.70
2012,10,06,06,04,5.70
2012,10,06,06,05,5.70
2012,10,06,06,06,5.70
2012,10,06,06,07,5.70
2012,10,06,06,08,5.70
2012,10,06,06,09,5.70
2012,10,06,06,10,5.70
2012,10,06,06,11,5.70
2012,10,06,06,12,5.70
2012,10,06,06,13,5.70
2012,10,06,06,14,5.70
2012,10,06,06,15,5.70
2012,10,06,06,16,5.70
2012,10,06,06,17,5.70
2012,10,06,06,18,5.70
2012,10,06,06,19,5.70
2012,10,06,06,20,5.70
2012,10,06,06,21,5.70
2012,10,06,06,22,5.70
2012,10,06,06,23,5.70
2012,10,06,06,24,5.80
2012,10,06,06,25,5.80
2012,10,06,06,26,5.80
2012,10,06,06,27,5.80
2012,10,06,06,28,5.80
2012,10,06,06,29,5.80
2012,10,06,06,30,5.80
2012,10,06,06,31,5.80
2012,10,06,06,32,5.80
2012,10,06,06,33,5.80
2012,10,06,06,34,5.80
2012,10,06,06,35,5.90
2012,10,06,06,36,5.90
2012,10,06,06,37,5.90
2012,10,06,06,38,6.00
2012,10,06,06,39,6.00
2012,10,06,06,40,6.10
2012,10,06,06,41,6.10
2012,10,06,06,42,6.10
2012,10,06,06,43,6.10
2012,10,06,06,44,6.10
2012,10,06,06,45,6.10
2012,10,06,06,46,6.20
2012,10,06,06,47,6.20
2012,10,06,06,48,6.20
2012,10,06,06,49,6.20
2012,10,06,06,50,6.20
2012,10,06,06,51,6.20
2012,10,06,06,52,6.20
2012,10,06,06,53,6.20
2012,10,06,06,54,6.20
2012,10,06,06,55,6.20
2012,10,06,06,56,6.20
2012,10,06,06,57,6.20
2012,10,06,06,58,6.30
2012,10,06,06,59,6.30
2012,10,06,07,00,6.30
2012,10,06,07,01,6.30
2012,10,06,07,02,6.30
2012,10,06,07,03,6.30
2012,10,06,07,04,6.30
2012,10,06,07,05,6.30
2012,10,06,07,06,6.30
2012,10,06,07,07,6.30
2012,10,06,07,08,6.30
2012,10,06,07,09,6.30
2012,10,06,07,10,6.30
2012,10,06,07,11,6.30
2012,10,06,07,12,6.30
2012,10,06,07,13,6.30
2012,10,06,07,14,6.30
2012,10,06,07,15,6.30
2012,10,06,07,16,6.30
2012,10,06,07,17,6.30
2012,10,06,07,18,6.30
2012,10,06,07,19,6.30
2012,10,06,07,20,6.30
2012,10,06,07,21,6.20
2012,10,06,07,22,6.20
2012,10,06,07,23,6.20
2012,10,06,07,24,6.20
2012,10,06,07,25,6.20
2012,10,06,07,26,6.20
2012,10,06,07,27,6.20
2012,10,06,07,28,6.20
2012,10,06,07,29,6.20
2012,10,06,07,30,6.20
2012,10,06,07,31,6.20
2012,10,06,07,32,6.20
2012,10,06,07,33,6.20
2012,10,06,07,34,6.20
2012,10,06,07,35,6.20
2012,10,06,07,36,6.20
2012,10,06,07,37,6.20
2012,10,06,07,38,6.20
2012,10,06,07,39,6.20
2012,10,06,07,40,6.20
2012,10,06,07,41,6.30
2012,10,06,07,42,6.30
2012,10,06,07,43,6.30
2012,10,06,07,44,6.30
2012,10,06,07,45,6.30
2012,10,06,07,46,6.30
2012,10,06,07,47,6.30
2012,10,06,07,48,6.30
2012,10,06,07,49,6.30
2012,10,06,07,50,6.30
2012,10,06,07,51,6.30
2012,10,06,07,52,6.30
2012,10,06,07,53,6.30
2012,10,06,07,54,6.30
2012,10,06,07,55,6.30
2012,10,06,07,56,6.30
2012,10,06,07,57,6.30
2012,10,06,07,58,6.30
2012,10,06,07,59,6.30
2012,10,06,08,00,6.30
2012,10,06,08,01,6.30
2012,10,06,08,02,6.30
2012,10,06,08,03,6.30
2012,10,06,08,04,6.30
2012,10,06,08,05,6.30
2012,10,06,08,06,6.30
2012,10,06,08,07,6.30
2012,10,06,08,08,6.40
2012,10,06,08,09,6.40
2012,10,06,08,10,6.40
2012,10,06,08,11,6.40
2012,10,06,08,12,6.40
2012,10,06,08,13,6.40
2012,10,06,08,14,6.40
2012,10,06,08,15,6.40
2012,10,06,08,16,6.50
2012,10,06,08,17,6.50
2012,10,06,08,18,6.50
2012,10,06,08,19,6.60
2012,10,06,08,20,6.60
2012,10,06,08,21,6.60
2012,10,06,08,22,6.60
2012,10,06,08,23,6.60
2012,10,06,08,24,6.60
2012,10,06,08,25,6.70
2012,10,06,08,26,6.70
2012,10,06,08,27,6.70
2012,10,06,08,28,6.70
2012,10,06,08,29,6.70
2012,10,06,08,30,6.80
2012,10,06,08,31,6.80
2012,10,06,08,32,6.90
2012,10,06,08,33,6.90
2012,10,06,08,34,7.00
2012,10,06,08,35,7.00
2012,10,06,08,36,7.10
2012,10,06,08,37,7.10
2012,10,06,08,38,7.20
2012,10,06,08,39,7.20
2012,10,06,08,40,7.30
2012,10,06,08,41,7.30
2012,10,06,08,42,7.40
2012,10,06,08,43,7.40
2012,10,06,08,44,7.50
2012,10,06,08,45,7.60
2012,10,06,08,46,7.60
2012,10,06,08,47,7.70
2012,10,06,08,48,7.80
2012,10,06,08,49,7.80
2012,10,06,08,50,7.90
2012,10,06,08,51,8.00
2012,10,06,08,52,8.00
2012,10,06,08,53,8.10
2012,10,06,08,54,8.20
2012,10,06,08,55,8.30
2012,10,06,08,56,8.40
2012,10,06,08,57,8.50
2012,10,06,08,58,8.60
2012,10,06,08,59,8.70
2012,10,06,09,00,8.70
2012,10,06,09,01,8.80
2012,10,06,09,02,8.90
2012,10,06,09,03,9.00
2012,10,06,09,04,9.10
2012,10,06,09,05,9.20
2012,10,06,09,06,9.30
2012,10,06,09,07,9.40
2012,10,06,09,08,9.40
2012,10,06,09,09,9.50
2012,10,06,09,10,9.60
2012,10,06,09,11,9.70
2012,10,06,09,12,9.80
2012,10,06,09,13,9.80
2012,10,06,09,14,9.90
2012,10,06,09,15,10.00
2012,10,06,09,16,10.10
2012,10,06,09,17,10.20
2012,10,06,09,18,10.20
2012,10,06,09,19,10.30
2012,10,06,09,20,10.30
2012,10,06,09,21,10.40
2012,10,06,09,22,10.40
2012,10,06,09,23,10.50
2012,10,06,09,24,10.50
2012,10,06,09,25,10.60
2012,10,06,09,26,10.70
2012,10,06,09,27,10.80
2012,10,06,09,28,10.80
2012,10,06,09,29,10.90
2012,10,06,09,30,11.00
2012,10,06,09,31,11.10
2012,10,06,09,32,11.20
2012,10,06,09,33,11.20
2012,10,06,09,34,11.30
2012,10,06,09,35,11.30
2012,10,06,09,36,11.40
2012,10,06,09,37,11.50
2012,10,06,09,38,11.60
2012,10,06,09,39,11.70
2012,10,06,09,40,11.70
2012,10,06,09,41,11.80
2012,10,06,09,42,11.90
2012,10,06,09,43,12.00
2012,10,06,09,44,12.10
2012,10,06,09,45,12.20
2012,10,06,09,46,12.20
2012,10,06,09,47,12.30
2012,10,06,09,48,12.40
2012,10,06,09,49,12.50
2012,10,06,09,50,12.60
2012,10,06,09,51,12.60
2012,10,06,09,52,12.70
2012,10,06,09,53,12.80
2012,10,06,09,54,12.90
2012,10,06,09,55,13.00
2012,10,06,09,56,13.00
2012,10,06,09,57,13.10
2012,10,06,09,58,13.10
2012,10,06,09,59,13.20
2012,10,06,10,00,13.20
2012,10,06,10,01,13.20
2012,10,06,10,02,13.30
2012,10,06,10,03,13.40
2012,10,06,10,04,13.50
2012,10,06,10,05,13.50
2012,10,06,10,06,13.60
2012,10,06,10,07,13.70
2012,10,06,10,08,13.80
2012,10,06,10,09,13.90
2012,10,06,10,10,14.00
2012,10,06,10,11,14.10
2012,10,06,10,12,14.20
2012,10,06,10,13,14.30
2012,10,06,10,14,14.40
2012,10,06,10,15,14.50
2012,10,06,10,16,14.60
2012,10,06,10,17,14.70
2012,10,06,10,18,14.80
2012,10,06,10,19,14.80
2012,10,06,10,20,14.90
2012,10,06,10,21,15.00
2012,10,06,10,22,15.00
2012,10,06,10,23,15.10
2012,10,06,10,24,15.20
2012,10,06,10,25,15.30
2012,10,06,10,26,15.30
2012,10,06,10,27,15.40
2012,10,06,10,28,15.40
2012,10,06,10,29,15.40
2012,10,06,10,30,15.50
2012,10,06,10,31,15.50
2012,10,06,10,32,15.50
2012,10,06,10,33,15.60
2012,10,06,10,34,15.60
2012,10,06,10,35,15.60
2012,10,06,10,36,15.70
2012,10,06,10,37,15.70
2012,10,06,10,38,15.80
2012,10,06,10,39,15.80
2012,10,06,10,40,15.80
2012,10,06,10,41,15.90
2012,10,06,10,42,16.00
2012,10,06,10,43,16.00
2012,10,06,10,44,16.10
2012,10,06,10,45,16.10
2012,10,06,10,46,16.20
2012,10,06,10,47,16.20
2012,10,06,10,48,16.30
2012,10,06,10,49,16.30
2012,10,06,10,50,16.40
2012,10,06,10,51,16.50
2012,10,06,10,52,16.50
2012,10,06,10,53,16.60
2012,10,06,10,54,16.60
2012,10,06,10,55,16.70
2012,10,06,10,56,16.70
2012,10,06,10,57,16.70
2012,10,06,10,58,16.80
2012,10,06,10,59,16.80
2012,10,06,11,00,16.90
2012,10,06,11,01,16.90
2012,10,06,11,02,17.00
2012,10,06,11,03,17.10
2012,10,06,11,04,17.10
2012,10,06,11,05,17.20
2012,10,06,11,06,17.20
2012,10,06,11,07,17.20
2012,10,06,11,08,17.30
2012,10,06,11,09,17.30
2012,10,06,11,10,17.30
2012,10,06,11,11,17.30
2012,10,06,11,12,17.30
2012,10,06,11,13,17.40
2012,10,06,11,14,17.40
2012,10,06,11,15,17.40
2012,10,06,11,16,17.50
2012,10,06,11,17,17.50
2012,10,06,11,18,17.50
2012,10,06,11,19,17.60
2012,10,06,11,20,17.60
2012,10,06,11,21,17.70
2012,10,06,11,22,17.70
2012,10,06,11,23,17.70
2012,10,06,11,24,17.80
2012,10,06,11,25,17.80
2012,10,06,11,26,17.90
2012,10,06,11,27,17.90
2012,10,06,11,28,17.90
2012,10,06,11,29,17.90
2012,10,06,11,30,18.00
2012,10,06,11,31,18.00
2012,10,06,11,32,18.10
2012,10,06,11,33,18.10
2012,10,06,11,34,18.20
2012,10,06,11,35,18.20
2012,10,06,11,36,18.30
2012,10,06,11,37,18.30
2012,10,06,11,38,18.40
2012,10,06,11,39,18.50
2012,10,06,11,40,18.60
2012,10,06,11,41,18.60
2012,10,06,11,42,18.60
2012,10,06,11,43,18.60
2012,10,06,11,44,18.60
2012,10,06,11,45,18.50
2012,10,06,11,46,18.50
2012,10,06,11,47,18.50
2012,10,06,11,48,18.50
2012,10,06,11,49,18.50
2012,10,06,11,50,18.60
2012,10,06,11,51,18.60
2012,10,06,11,52,18.60
2012,10,06,11,53,18.60
2012,10,06,11,54,18.70
2012,10,06,11,55,18.70
2012,10,06,11,56,18.70
2012,10,06,11,57,18.70
2012,10,06,11,58,18.70
2012,10,06,11,59,18.80
2012,10,06,12,00,18.80
2012,10,06,12,01,18.80
2012,10,06,12,02,18.90
2012,10,06,12,03,18.90
2012,10,06,12,04,18.90
2012,10,06,12,05,19.00
2012,10,06,12,06,19.00
2012,10,06,12,07,19.00
2012,10,06,12,08,19.10
2012,10,06,12,09,19.10
2012,10,06,12,10,19.10
2012,10,06,12,11,19.20
2012,10,06,12,12,19.20
2012,10,06,12,13,19.20
2012,10,06,12,14,19.30
2012,10,06,12,15,19.30
2012,10,06,12,16,19.30
2012,10,06,12,17,19.30
2012,10,06,12,18,19.40
2012,10,06,12,19,19.40
2012,10,06,12,20,19.40
2012,10,06,12,21,19.40
2012,10,06,12,22,19.50
2012,10,06,12,23,19.50
2012,10,06,12,24,19.60
2012,10,06,12,25,19.60
2012,10,06,12,26,19.60
2012,10,06,12,27,19.60
2012,10,06,12,28,19.60
2012,10,06,12,29,19.60
2012,10,06,12,30,19.60
2012,10,06,12,31,19.60
2012,10,06,12,32,19.60
2012,10,06,12,33,19.60
2012,10,06,12,34,19.60
2012,10,06,12,35,19.70
2012,10,06,12,36,19.70
2012,10,06,12,37,19.70
2012,10,06,12,38,19.70
2012,10,06,12,39,19.70
2012,10,06,12,40,19.70
2012,10,06,12,41,19.70
2012,10,06,12,42,19.70
2012,10,06,12,43,19.70
2012,10,06,12,44,19.70
2012,10,06,12,45,19.70
2012,10,06,12,46,19.70
2012,10,06,12,47,19.70
2012,10,06,12,48,19.70
2012,10,06,12,49,19.70
2012,10,06,12,50,19.70
2012,10,06,12,51,19.70
2012,10,06,12,52,19.70
2012,10,06,12,53,19.60
2012,10,06,12,54,19.60
2012,10,06,12,55,19.70
2012,10,06,12,56,19.70
2012,10,06,12,57,19.70
2012,10,06,12,58,19.70
2012,10,06,12,59,19.70
2012,10,06,13,00,19.70
2012,10,06,13,01,19.70
2012,10,06,13,02,19.70
2012,10,06,13,03,19.70
2012,10,06,13,04,19.70
2012,10,06,13,05,19.80
2012,10,06,13,06,19.80
2012,10,06,13,07,19.80
2012,10,06,13,08,19.80
2012,10,06,13,09,19.80
2012,10,06,13,10,19.90
2012,10,06,13,11,19.90
2012,10,06,13,12,19.90
2012,10,06,13,13,20.00
2012,10,06,13,14,20.00
2012,10,06,13,15,20.10
2012,10,06,13,16,20.10
2012,10,06,13,17,20.10
2012,10,06,13,18,20.10
2012,10,06,13,19,20.10
2012,10,06,13,20,20.10
2012,10,06,13,21,20.20
2012,10,06,13,22,20.20
2012,10,06,13,23,20.20
2012,10,06,13,24,20.20
2012,10,06,13,25,20.30
2012,10,06,13,26,20.30
2012,10,06,13,27,20.30
2012,10,06,13,28,20.30
2012,10,06,13,29,20.30
2012,10,06,13,30,20.30
2012,10,06,13,31,20.30
2012,10,06,13,32,20.30
2012,10,06,13,33,20.30
2012,10,06,13,34,20.40
2012,10,06,13,35,20.40
2012,10,06,13,36,20.50
2012,10,06,13,37,20.50
2012,10,06,13,38,20.60
2012,10,06,13,39,20.60
2012,10,06,13,40,20.60
2012,10,06,13,41,20.60
2012,10,06,13,42,20.70
2012,10,06,13,43,20.70
2012,10,06,13,44,20.70
2012,10,06,13,45,20.80
2012,10,06,13,46,20.80
2012,10,06,13,47,20.80
2012,10,06,13,48,20.90
2012,10,06,13,49,20.90
2012,10,06,13,50,21.00
2012,10,06,13,51,21.00
2012,10,06,13,52,21.10
2012,10,06,13,53,21.10
2012,10,06,13,54,21.10
2012,10,06,13,55,21.20
2012,10,06,13,56,21.20
2012,10,06,13,57,21.20
2012,10,06,13,58,21.30
2012,10,06,13,59,21.30
2012,10,06,14,00,21.30
2012,10,06,14,01,21.40
2012,10,06,14,02,21.40
2012,10,06,14,03,21.40
2012,10,06,14,04,21.40
2012,10,06,14,05,21.40
2012,10,06,14,06,21.40
2012,10,06,14,07,21.40
2012,10,06,14,08,21.40
2012,10,06,14,09,21.40
2012,10,06,14,10,21.40
2012,10,06,14,11,21.40
2012,10,06,14,12,21.40
2012,10,06,14,13,21.30
2012,10,06,14,14,21.30
2012,10,06,14,15,21.30
2012,10,06,14,16,21.30
2012,10,06,14,17,21.30
2012,10,06,14,18,21.30
2012,10,06,14,19,21.40
2012,10,06,14,20,21.40
2012,10,06,14,21,21.40
2012,10,06,14,22,21.40
2012,10,06,14,23,21.40
2012,10,06,14,24,21.30
2012,10,06,14,25,21.30
2012,10,06,14,26,21.30
2012,10,06,14,27,21.30
2012,10,06,14,28,21.30
2012,10,06,14,29,21.30
2012,10,06,14,30,21.30
2012,10,06,14,31,21.40
2012,10,06,14,32,21.40
2012,10,06,14,33,21.40
2012,10,06,14,34,21.50
2012,10,06,14,35,21.60
2012,10,06,14,36,21.60
2012,10,06,14,37,21.60
2012,10,06,14,38,21.70
2012,10,06,14,39,21.70
2012,10,06,14,40,21.70
2012,10,06,14,41,21.70
2012,10,06,14,42,21.70
2012,10,06,14,43,21.70
2012,10,06,14,44,21.70
2012,10,06,14,45,21.70
2012,10,06,14,46,21.70
2012,10,06,14,47,21.70
2012,10,06,14,48,21.70
2012,10,06,14,49,21.70
2012,10,06,14,50,21.80
2012,10,06,14,51,21.80
2012,10,06,14,52,21.90
2012,10,06,14,53,21.90
2012,10,06,14,54,21.90
2012,10,06,14,55,21.80
2012,10,06,14,56,21.80
2012,10,06,14,57,21.70
2012,10,06,14,58,21.60
2012,10,06,14,59,21.50
2012,10,06,15,00,21.40
2012,10,06,15,01,21.30
2012,10,06,15,02,21.20
2012,10,06,15,03,21.20
2012,10,06,15,04,21.20
2012,10,06,15,05,21.20
2012,10,06,15,06,21.20
2012,10,06,15,07,21.20
2012,10,06,15,08,21.20
2012,10,06,15,09,21.20
2012,10,06,15,10,21.30
2012,10,06,15,11,21.30
2012,10,06,15,12,21.30
2012,10,06,15,13,21.30
2012,10,06,15,14,21.30
2012,10,06,15,15,21.30
2012,10,06,15,16,21.40
2012,10,06,15,17,21.50
2012,10,06,15,18,21.50
2012,10,06,15,19,21.60
2012,10,06,15,20,21.70
2012,10,06,15,21,21.70
2012,10,06,15,22,21.80
2012,10,06,15,23,21.80
2012,10,06,15,24,21.80
2012,10,06,15,25,21.90
2012,10,06,15,26,21.90
2012,10,06,15,27,22.00
2012,10,06,15,28,22.00
2012,10,06,15,29,22.00
2012,10,06,15,30,22.00
2012,10,06,15,31,22.10
2012,10,06,15,32,22.10
2012,10,06,15,33,22.10
2012,10,06,15,34,22.10
2012,10,06,15,35,22.10
2012,10,06,15,36,22.10
2012,10,06,15,37,22.10
2012,10,06,15,38,22.20
2012,10,06,15,39,22.20
2012,10,06,15,40,22.20
2012,10,06,15,41,22.20
2012,10,06,15,42,22.30
2012,10,06,15,43,22.30
2012,10,06,15,44,22.30
2012,10,06,15,45,22.40
2012,10,06,15,46,22.40
2012,10,06,15,47,22.40
2012,10,06,15,48,22.40
2012,10,06,15,49,22.40
2012,10,06,15,50,22.40
2012,10,06,15,51,22.40
2012,10,06,15,52,22.40
2012,10,06,15,53,22.40
2012,10,06,15,54,22.40
2012,10,06,15,55,22.40
2012,10,06,15,56,22.40
2012,10,06,15,57,22.40
2012,10,06,15,58,22.40
2012,10,06,15,59,22.40
2012,10,06,16,00,22.40
2012,10,06,16,01,22.40
2012,10,06,16,02,22.40
2012,10,06,16,03,22.40
2012,10,06,16,04,22.40
2012,10,06,16,05,22.40
2012,10,06,16,06,22.40
2012,10,06,16,07,22.40
2012,10,06,16,08,22.40
2012,10,06,16,09,22.40
2012,10,06,16,10,22.40
2012,10,06,16,11,22.40
2012,10,06,16,12,22.40
2012,10,06,16,13,22.40
2012,10,06,16,14,22.50
2012,10,06,16,15,22.50
2012,10,06,16,16,22.60
2012,10,06,16,17,22.60
2012,10,06,16,18,22.60
2012,10,06,16,19,22.60
2012,10,06,16,20,22.60
2012,10,06,16,21,22.60
2012,10,06,16,22,22.60
2012,10,06,16,23,22.60
2012,10,06,16,24,22.60
2012,10,06,16,25,22.60
2012,10,06,16,26,22.60
2012,10,06,16,27,22.60
2012,10,06,16,28,22.60
2012,10,06,16,29,22.60
2012,10,06,16,30,22.60
2012,10,06,16,31,22.60
2012,10,06,16,32,22.60
2012,10,06,16,33,22.60
2012,10,06,16,34,22.50
2012,10,06,16,35,22.50
2012,10,06,16,36,22.50
2012,10,06,16,37,22.50
2012,10,06,16,38,22.40
2012,10,06,16,39,22.40
2012,10,06,16,40,22.40
2012,10,06,16,41,22.30
2012,10,06,16,42,22.30
2012,10,06,16,43,22.30
2012,10,06,16,44,22.30
2012,10,06,16,45,22.30
2012,10,06,16,46,22.30
2012,10,06,16,47,22.30
2012,10,06,16,48,22.30
2012,10,06,16,49,22.20
2012,10,06,16,50,22.20
2012,10,06,16,51,22.20
2012,10,06,16,52,22.20
2012,10,06,16,53,22.20
2012,10,06,16,54,22.20
2012,10,06,16,55,22.20
2012,10,06,16,56,22.20
2012,10,06,16,57,22.20
2012,10,06,16,58,22.10
2012,10,06,16,59,22.10
2012,10,06,17,00,22.10
2012,10,06,17,01,22.10
2012,10,06,17,02,22.10
2012,10,06,17,03,22.00
2012,10,06,17,04,22.00
2012,10,06,17,05,22.00
2012,10,06,17,06,22.10
2012,10,06,17,07,22.00
2012,10,06,17,08,22.10
2012,10,06,17,09,22.10
2012,10,06,17,10,22.10
2012,10,06,17,11,22.10
2012,10,06,17,12,22.10
2012,10,06,17,13,22.10
2012,10,06,17,14,22.10
2012,10,06,17,15,22.10
2012,10,06,17,16,22.10
2012,10,06,17,17,22.10
2012,10,06,17,18,22.10
2012,10,06,17,19,22.10
2012,10,06,17,20,22.00
2012,10,06,17,21,22.00
2012,10,06,17,22,21.90
2012,10,06,17,23,21.90
2012,10,06,17,24,21.80
2012,10,06,17,25,21.80
2012,10,06,17,26,21.80
2012,10,06,17,27,21.70
2012,10,06,17,28,21.70
2012,10,06,17,29,21.60
2012,10,06,17,30,21.50
2012,10,06,17,31,21.50
2012,10,06,17,32,21.40
2012,10,06,17,33,21.40
2012,10,06,17,34,21.30
2012,10,06,17,35,21.30
2012,10,06,17,36,21.20
2012,10,06,17,37,21.20
2012,10,06,17,38,21.10
2012,10,06,17,39,21.10
2012,10,06,17,40,21.10
2012,10,06,17,41,21.00
2012,10,06,17,42,21.00
2012,10,06,17,43,20.90